Time,TemperatureF,DewpointF,PressureIn,WindDirection,WindDirectionDegrees,WindSpeedMPH,WindSpeedGustMPH,Humidity,HourlyPrecipIn,Conditions,Clouds,dailyrainin,SoftwareType,DateUTC
2013-06-06 00:02:00,58.0,55.0,29.89,WNW,301,1.0,2.0,89,0.00,,,0.00,,2013-06-06 07:02:00,
2013-06-06 00:12:00,58.0,55.0,29.89,WNW,301,1.0,2.0,89,0.00,,,0.00,,2013-06-06 07:12:00,
2013-06-06 00:22:00,58.0,55.0,29.89,NW,312,1.0,3.0,90,0.00,,,0.00,,2013-06-06 07:22:00,
2013-06-06 00:32:00,58.0,55.0,29.89,NW,319,2.0,3.0,90,0.00,,,0.00,,2013-06-06 07:32:00,
2013-06-06 00:42:00,58.0,55.0,29.89,NW,319,2.0,3.0,90,0.00,,,0.00,,2013-06-06 07:42:00,
2013-06-06 00:52:00,58.0,55.0,29.88,NW,319,0.0,2.0,91,0.00,,,0.00,,2013-06-06 07:52:00,
2013-06-06 01:02:00,57.0,54.0,29.88,NW,319,0.0,1.0,91,0.00,,,0.00,,2013-06-06 08:02:00,
2013-06-06 01:12:00,57.0,54.0,29.88,NW,319,0.0,1.0,91,0.00,,,0.00,,2013-06-06 08:12:00,
2013-06-06 01:22:00,57.0,54.0,29.88,NW,319,0.0,3.0,91,0.00,,,0.00,,2013-06-06 08:22:00,
2013-06-06 01:32:00,57.0,55.0,29.87,NW,319,0.0,1.0,92,0.00,,,0.00,,2013-06-06 08:32:00,
2013-06-06 01:42:00,57.0,55.0,29.87,NW,319,0.0,1.0,92,0.00,,,0.00,,2013-06-06 08:42:00,
2013-06-06 01:52:00,57.0,55.0,29.87,NW,319,0.0,1.0,92,0.00,,,0.00,,2013-06-06 08:52:00,
2013-06-06 02:02:00,56.0,53.0,29.87,NW,319,0.0,0.0,91,0.00,,,0.00,,2013-06-06 09:02:00,
2013-06-06 02:12:00,56.0,53.0,29.87,NW,319,0.0,0.0,91,0.00,,,0.00,,2013-06-06 09:12:00,
2013-06-06 02:22:00,56.0,54.0,29.86,NW,319,0.0,0.0,92,0.00,,,0.00,,2013-06-06 09:22:00,
2013-06-06 02:33:00,56.0,54.0,29.86,NW,319,0.0,0.0,92,0.00,,,0.00,,2013-06-06 09:33:00,
2013-06-06 02:43:00,56.0,54.0,29.86,NW,319,0.0,0.0,92,0.00,,,0.00,,2013-06-06 09:43:00,
2013-06-06 02:53:00,57.0,55.0,29.86,NW,319,0.0,0.0,92,0.00,,,0.00,,2013-06-06 09:53:00,
2013-06-06 03:02:00,57.0,55.0,29.86,NW,319,0.0,0.0,93,0.00,,,0.00,,2013-06-06 10:02:00,
2013-06-06 03:12:00,57.0,55.0,29.86,NW,319,0.0,0.0,93,0.00,,,0.00,,2013-06-06 10:12:00,
2013-06-06 03:22:00,58.0,56.0,29.86,NW,319,0.0,1.0,93,0.00,,,0.00,,2013-06-06 10:22:00,
2013-06-06 03:33:00,58.0,56.0,29.86,NW,319,0.0,1.0,93,0.00,,,0.00,,2013-06-06 10:33:00,
2013-06-06 03:42:00,58.0,56.0,29.86,NW,319,0.0,1.0,93,0.00,,,0.00,,2013-06-06 10:42:00,
2013-06-06 03:52:00,59.0,57.0,29.86,NW,317,1.0,3.0,92,0.00,,,0.00,,2013-06-06 10:52:00,
2013-06-06 04:02:00,59.0,57.0,29.86,NW,317,0.0,3.0,92,0.00,,,0.00,,2013-06-06 11:02:00,
2013-06-06 04:12:00,59.0,57.0,29.86,NW,317,0.0,3.0,92,0.00,,,0.00,,2013-06-06 11:12:00,
2013-06-06 04:22:00,59.0,57.0,29.86,NW,308,2.0,5.0,92,0.00,,,0.00,,2013-06-06 11:22:00,
2013-06-06 04:32:00,59.0,57.0,29.86,NW,309,1.0,4.0,92,0.00,,,0.00,,2013-06-06 11:32:00,
2013-06-06 04:42:00,59.0,57.0,29.86,NW,309,1.0,4.0,92,0.00,,,0.00,,2013-06-06 11:42:00,
2013-06-06 04:52:00,59.0,57.0,29.86,North,355,0.0,6.0,92,0.00,,,0.00,,2013-06-06 11:52:00,
2013-06-06 05:02:00,59.0,57.0,29.87,NNW,341,3.0,5.0,92,0.00,,,0.00,,2013-06-06 12:02:00,
2013-06-06 05:12:00,59.0,57.0,29.87,NNW,341,3.0,5.0,92,0.00,,,0.00,,2013-06-06 12:12:00,
2013-06-06 05:22:00,59.0,57.0,29.87,NNW,339,2.0,3.0,92,0.00,,,0.00,,2013-06-06 12:22:00,
2013-06-06 05:32:00,59.0,57.0,29.86,NNE,19,2.0,5.0,92,0.00,,,0.00,,2013-06-06 12:32:00,
2013-06-06 05:42:00,59.0,57.0,29.86,NNE,19,2.0,5.0,92,0.00,,,0.00,,2013-06-06 12:42:00,
2013-06-06 05:52:00,59.0,57.0,29.86,NNE,12,1.0,4.0,92,0.00,,,0.00,,2013-06-06 12:52:00,
2013-06-06 06:02:00,59.0,57.0,29.86,NNE,19,1.0,4.0,92,0.00,,,0.00,,2013-06-06 13:02:00,
2013-06-06 06:12:00,59.0,57.0,29.86,NNE,19,1.0,4.0,92,0.00,,,0.00,,2013-06-06 13:12:00,
2013-06-06 06:22:00,59.0,57.0,29.86,WNW,292,1.0,3.0,92,0.00,,,0.00,,2013-06-06 13:22:00,
2013-06-06 06:32:00,59.0,57.0,29.86,NW,318,0.0,3.0,92,0.00,,,0.00,,2013-06-06 13:32:00,
2013-06-06 06:42:00,59.0,57.0,29.86,NW,318,0.0,3.0,92,0.00,,,0.00,,2013-06-06 13:42:00,
2013-06-06 06:52:00,59.0,57.0,29.87,NNE,23,0.0,3.0,92,0.00,,,0.00,,2013-06-06 13:52:00,
2013-06-06 07:02:00,59.0,57.0,29.87,NNE,23,2.0,4.0,92,0.00,,,0.00,,2013-06-06 14:02:00,
2013-06-06 07:22:00,59.0,57.0,29.87,NW,308,1.0,4.0,92,0.00,,,0.00,,2013-06-06 14:22:00,
2013-06-06 07:32:00,59.0,56.0,29.88,WNW,293,0.0,4.0,91,0.00,,,0.00,,2013-06-06 14:32:00,
2013-06-06 07:42:00,59.0,56.0,29.88,WNW,293,0.0,4.0,91,0.00,,,0.00,,2013-06-06 14:42:00,
2013-06-06 07:52:00,59.0,56.0,29.88,North,355,1.0,4.0,91,0.00,,,0.00,,2013-06-06 14:52:00,
2013-06-06 08:02:00,60.0,57.0,29.88,North,360,0.0,4.0,90,0.00,,,0.00,,2013-06-06 15:02:00,
2013-06-06 08:12:00,60.0,57.0,29.88,North,360,0.0,4.0,90,0.00,,,0.00,,2013-06-06 15:12:00,
2013-06-06 08:22:00,60.0,57.0,29.89,NW,315,1.0,5.0,89,0.00,,,0.00,,2013-06-06 15:22:00,
2013-06-06 08:32:00,60.0,56.0,29.90,NNW,335,0.0,4.0,88,0.00,,,0.00,,2013-06-06 15:32:00,
2013-06-06 08:43:00,60.0,56.0,29.90,NNW,335,0.0,4.0,88,0.00,,,0.00,,2013-06-06 15:43:00,
2013-06-06 08:52:00,60.0,56.0,29.90,West,261,0.0,3.0,88,0.00,,,0.00,,2013-06-06 15:52:00,
2013-06-06 09:03:00,60.0,56.0,29.90,WNW,299,0.0,3.0,88,0.00,,,0.00,,2013-06-06 16:03:00,
2013-06-06 09:12:00,60.0,56.0,29.90,WNW,299,0.0,3.0,88,0.00,,,0.00,,2013-06-06 16:12:00,
2013-06-06 09:22:00,61.0,57.0,29.90,WNW,284,3.0,7.0,86,0.00,,,0.00,,2013-06-06 16:22:00,
2013-06-06 09:33:00,62.0,58.0,29.90,WNW,292,1.0,5.0,86,0.00,,,0.00,,2013-06-06 16:33:00,
2013-06-06 09:43:00,62.0,58.0,29.90,WNW,292,1.0,5.0,86,0.00,,,0.00,,2013-06-06 16:43:00,
2013-06-06 09:52:00,62.0,57.0,29.90,WNW,292,2.0,6.0,84,0.00,,,0.00,,2013-06-06 16:52:00,
2013-06-06 10:03:00,63.0,58.0,29.90,WNW,288,3.0,5.0,83,0.00,,,0.00,,2013-06-06 17:03:00,
2013-06-06 10:12:00,63.0,58.0,29.90,WNW,288,3.0,5.0,83,0.00,,,0.00,,2013-06-06 17:12:00,
2013-06-06 10:22:00,63.0,58.0,29.91,West,260,2.0,7.0,83,0.00,,,0.00,,2013-06-06 17:22:00,
2013-06-06 10:32:00,63.0,58.0,29.91,SW,214,3.0,5.0,83,0.00,,,0.00,,2013-06-06 17:32:00,
2013-06-06 10:42:00,63.0,58.0,29.91,SW,214,3.0,5.0,83,0.00,,,0.00,,2013-06-06 17:42:00,
2013-06-06 10:52:00,64.0,57.0,29.90,SW,231,1.0,7.0,79,0.00,,,0.00,,2013-06-06 17:52:00,
2013-06-06 11:02:00,66.0,59.0,29.90,West,276,2.0,6.0,78,0.00,,,0.00,,2013-06-06 18:02:00,
2013-06-06 11:12:00,66.0,59.0,29.90,West,276,2.0,6.0,78,0.00,,,0.00,,2013-06-06 18:12:00,
2013-06-06 11:22:00,66.0,59.0,29.90,West,276,2.0,6.0,78,0.00,,,0.00,,2013-06-06 18:22:00,
2013-06-06 11:33:00,68.0,60.0,29.90,NW,315,5.0,12.0,75,0.00,,,0.00,,2013-06-06 18:33:00,
2013-06-06 11:42:00,68.0,60.0,29.90,NW,315,5.0,12.0,75,0.00,,,0.00,,2013-06-06 18:42:00,
2013-06-06 11:53:00,69.0,60.0,29.91,WSW,243,7.0,12.0,73,0.00,,,0.00,,2013-06-06 18:53:00,
2013-06-06 12:02:00,69.0,60.0,29.90,SSW,193,7.0,13.0,72,0.00,,,0.00,,2013-06-06 19:02:00,
2013-06-06 12:12:00,69.0,60.0,29.90,SSW,193,7.0,13.0,72,0.00,,,0.00,,2013-06-06 19:12:00,
2013-06-06 12:23:00,69.0,60.0,29.90,WSW,240,5.0,11.0,73,0.00,,,0.00,,2013-06-06 19:23:00,
2013-06-06 12:33:00,69.0,59.0,29.90,WNW,288,5.0,12.0,71,0.00,,,0.00,,2013-06-06 19:33:00,
2013-06-06 12:42:00,69.0,59.0,29.90,WNW,288,5.0,12.0,71,0.00,,,0.00,,2013-06-06 19:42:00,
2013-06-06 12:52:00,69.0,60.0,29.90,West,262,6.0,12.0,73,0.00,,,0.00,,2013-06-06 19:52:00,
2013-06-06 13:02:00,70.0,60.0,29.90,SW,222,7.0,11.0,70,0.00,,,0.00,,2013-06-06 20:02:00,
2013-06-06 13:12:00,70.0,60.0,29.90,SW,222,7.0,11.0,70,0.00,,,0.00,,2013-06-06 20:12:00,
2013-06-06 13:22:00,70.0,60.0,29.89,SSW,209,5.0,12.0,71,0.00,,,0.00,,2013-06-06 20:22:00,
2013-06-06 13:32:00,70.0,60.0,29.89,WSW,249,5.0,12.0,71,0.00,,,0.00,,2013-06-06 20:32:00,
2013-06-06 13:42:00,70.0,60.0,29.89,WSW,249,5.0,12.0,71,0.00,,,0.00,,2013-06-06 20:42:00,
2013-06-06 13:52:00,70.0,59.0,29.89,South,175,6.0,10.0,69,0.00,,,0.00,,2013-06-06 20:52:00,
2013-06-06 14:02:00,69.0,60.0,29.88,West,273,6.0,12.0,72,0.00,,,0.00,,2013-06-06 21:02:00,
2013-06-06 14:12:00,69.0,60.0,29.88,West,273,6.0,12.0,72,0.00,,,0.00,,2013-06-06 21:12:00,
2013-06-06 14:22:00,70.0,60.0,29.88,WNW,284,6.0,12.0,70,0.00,,,0.00,,2013-06-06 21:22:00,
2013-06-06 14:33:00,69.0,59.0,29.88,WSW,253,5.0,14.0,71,0.00,,,0.00,,2013-06-06 21:33:00,
2013-06-06 14:43:00,69.0,59.0,29.88,WSW,253,5.0,14.0,71,0.00,,,0.00,,2013-06-06 21:43:00,
2013-06-06 14:53:00,70.0,60.0,29.88,WSW,239,6.0,12.0,71,0.00,,,0.00,,2013-06-06 21:53:00,
2013-06-06 15:02:00,69.0,59.0,29.87,SW,235,6.0,11.0,71,0.00,,,0.00,,2013-06-06 22:02:00,
2013-06-06 15:12:00,69.0,59.0,29.87,SW,235,6.0,11.0,71,0.00,,,0.00,,2013-06-06 22:12:00,
2013-06-06 15:22:00,70.0,60.0,29.87,West,262,7.0,11.0,70,0.00,,,0.00,,2013-06-06 22:22:00,
2013-06-06 15:33:00,70.0,60.0,29.86,SW,225,6.0,11.0,70,0.00,,,0.00,,2013-06-06 22:33:00,
2013-06-06 15:43:00,70.0,60.0,29.86,SW,225,6.0,11.0,70,0.00,,,0.00,,2013-06-06 22:43:00,
2013-06-06 15:52:00,70.0,60.0,29.86,SW,226,4.0,10.0,71,0.00,,,0.00,,2013-06-06 22:52:00,
2013-06-06 16:02:00,69.0,59.0,29.85,SW,216,6.0,12.0,71,0.00,,,0.00,,2013-06-06 23:02:00,
2013-06-06 16:12:00,69.0,59.0,29.85,SW,216,6.0,12.0,71,0.00,,,0.00,,2013-06-06 23:12:00,
2013-06-06 16:22:00,68.0,59.0,29.85,WSW,238,5.0,11.0,72,0.00,,,0.00,,2013-06-06 23:22:00,
2013-06-06 16:33:00,68.0,59.0,29.84,WSW,248,6.0,10.0,72,0.00,,,0.00,,2013-06-06 23:33:00,
2013-06-06 16:42:00,68.0,59.0,29.84,WSW,248,6.0,10.0,72,0.00,,,0.00,,2013-06-06 23:42:00,
2013-06-06 16:52:00,69.0,60.0,29.84,SW,235,5.0,9.0,72,0.00,,,0.00,,2013-06-06 23:52:00,
2013-06-06 17:02:00,67.0,59.0,29.84,SW,225,5.0,12.0,75,0.00,,,0.00,,2013-06-07 00:02:00,
2013-06-06 17:12:00,67.0,59.0,29.84,SW,225,5.0,12.0,75,0.00,,,0.00,,2013-06-07 00:12:00,
2013-06-06 17:22:00,68.0,59.0,29.84,WSW,256,6.0,11.0,74,0.00,,,0.00,,2013-06-07 00:22:00,
2013-06-06 17:32:00,66.0,59.0,29.84,SW,219,7.0,12.0,78,0.00,,,0.00,,2013-06-07 00:32:00,
2013-06-06 17:42:00,66.0,59.0,29.84,SW,219,7.0,12.0,78,0.00,,,0.00,,2013-06-07 00:42:00,
2013-06-06 17:52:00,65.0,58.0,29.84,South,190,5.0,10.0,79,0.00,,,0.00,,2013-06-07 00:52:00,
2013-06-06 18:02:00,65.0,58.0,29.84,WSW,248,5.0,10.0,79,0.00,,,0.00,,2013-06-07 01:02:00,
2013-06-06 18:12:00,65.0,58.0,29.84,WSW,248,5.0,10.0,79,0.00,,,0.00,,2013-06-07 01:12:00,
2013-06-06 18:22:00,65.0,59.0,29.83,SW,236,5.0,10.0,80,0.00,,,0.00,,2013-06-07 01:22:00,
2013-06-06 18:32:00,65.0,58.0,29.84,SSW,195,4.0,8.0,79,0.00,,,0.00,,2013-06-07 01:32:00,
2013-06-06 18:42:00,65.0,58.0,29.84,SSW,195,4.0,8.0,79,0.00,,,0.00,,2013-06-07 01:42:00,
2013-06-06 18:52:00,64.0,58.0,29.84,WSW,246,4.0,8.0,82,0.00,,,0.00,,2013-06-07 01:52:00,
2013-06-06 19:02:00,64.0,58.0,29.84,SW,234,4.0,9.0,82,0.00,,,0.00,,2013-06-07 02:02:00,
2013-06-06 19:12:00,64.0,58.0,29.84,SW,234,4.0,9.0,82,0.00,,,0.00,,2013-06-07 02:12:00,
2013-06-06 19:22:00,63.0,58.0,29.85,SW,236,4.0,8.0,84,0.00,,,0.00,,2013-06-07 02:22:00,
2013-06-06 19:32:00,64.0,59.0,29.84,SW,225,2.0,5.0,83,0.00,,,0.00,,2013-06-07 02:32:00,
2013-06-06 19:42:00,64.0,59.0,29.84,SW,225,2.0,5.0,83,0.00,,,0.00,,2013-06-07 02:42:00,
2013-06-06 19:52:00,62.0,58.0,29.85,SW,225,3.0,7.0,86,0.00,,,0.00,,2013-06-07 02:52:00,
2013-06-06 20:02:00,62.0,58.0,29.85,WSW,254,3.0,6.0,86,0.00,,,0.00,,2013-06-07 03:02:00,
2013-06-06 20:12:00,62.0,58.0,29.85,WSW,254,3.0,6.0,86,0.00,,,0.00,,2013-06-07 03:12:00,
2013-06-06 20:22:00,62.0,58.0,29.85,WSW,256,2.0,5.0,87,0.00,,,0.00,,2013-06-07 03:22:00,
2013-06-06 20:32:00,62.0,58.0,29.85,WSW,258,3.0,5.0,86,0.00,,,0.00,,2013-06-07 03:32:00,
2013-06-06 20:43:00,62.0,58.0,29.85,WSW,258,3.0,5.0,86,0.00,,,0.00,,2013-06-07 03:43:00,
2013-06-06 20:53:00,61.0,57.0,29.85,West,275,2.0,4.0,87,0.00,,,0.00,,2013-06-07 03:53:00,
2013-06-06 21:03:00,61.0,57.0,29.86,West,279,1.0,3.0,87,0.00,,,0.00,,2013-06-07 04:03:00,
2013-06-06 21:12:00,61.0,57.0,29.86,West,279,1.0,3.0,87,0.00,,,0.00,,2013-06-07 04:12:00,
2013-06-06 21:22:00,61.0,57.0,29.86,West,280,0.0,2.0,88,0.00,,,0.00,,2013-06-07 04:22:00,
2013-06-06 21:33:00,61.0,58.0,29.86,West,281,1.0,3.0,89,0.00,,,0.00,,2013-06-07 04:33:00,
2013-06-06 21:42:00,61.0,58.0,29.86,West,281,1.0,3.0,89,0.00,,,0.00,,2013-06-07 04:42:00,
2013-06-06 21:53:00,61.0,57.0,29.87,West,281,0.0,2.0,88,0.00,,,0.00,,2013-06-07 04:53:00,
2013-06-06 22:02:00,61.0,58.0,29.87,West,279,0.0,2.0,89,0.00,,,0.00,,2013-06-07 05:02:00,
2013-06-06 22:12:00,61.0,58.0,29.87,West,279,0.0,2.0,89,0.00,,,0.00,,2013-06-07 05:12:00,
2013-06-06 22:22:00,61.0,58.0,29.88,SSW,204,0.0,2.0,89,0.00,,,0.00,,2013-06-07 05:22:00,
2013-06-06 22:32:00,62.0,58.0,29.87,West,275,0.0,3.0,88,0.00,,,0.00,,2013-06-07 05:32:00,
2013-06-06 22:42:00,62.0,58.0,29.87,West,275,0.0,3.0,88,0.00,,,0.00,,2013-06-07 05:42:00,
2013-06-06 22:52:00,62.0,58.0,29.87,West,275,0.0,2.0,87,0.00,,,0.00,,2013-06-07 05:52:00,
2013-06-06 23:02:00,61.0,57.0,29.88,West,274,0.0,3.0,88,0.00,,,0.00,,2013-06-07 06:02:00,
2013-06-06 23:12:00,61.0,57.0,29.88,West,274,0.0,3.0,88,0.00,,,0.00,,2013-06-07 06:12:00,
2013-06-06 23:21:00,62.0,58.0,29.88,NW,309,2.0,5.0,88,0.00,,,0.00,,2013-06-07 06:21:00,
2013-06-06 23:32:00,62.0,58.0,29.87,WNW,299,1.0,3.0,87,0.00,,,0.00,,2013-06-07 06:32:00,
2013-06-06 23:42:00,62.0,58.0,29.87,WNW,299,1.0,3.0,87,0.00,,,0.00,,2013-06-07 06:42:00,
2013-06-06 23:52:00,62.0,58.0,29.87,WNW,300,2.0,3.0,87,0.00,,,0.00,,2013-06-07 06:52:00,